Location: Unspecified
(43.0000°N, 0.0000°E)
Time: 12:01:48
(UTC+00:00)

PicSat - Pass Details

Date: 16 August 2020
Orbit: 482 x 496 km, 97.4° (Epoch: 21 September)

Event Time Altitude Azimuth Distance (km) Brightness Sun altitude
Exits shadow 22:38:14 19° 306° (NW) 1,245 ? -30.3°
Drops below altitude 10° 22:39:41 10° 323° (NW) 1,703 ? -30.4°
Sets 22:42:01 0° 336° (NNW) 2,589 ? -30.6°
